Location: Igri�s
(42.2144°N, 0.4320°W)
Time: 18:08:18
(UTC+00:00)

Meteor 1-25 Rocket - Pass Details

Date: 13 August 2020
Orbit: 837 x 891 km, 81.2° (Epoch: 18 September)

Event Time Altitude Azimuth Distance (km) Brightness Sun altitude
Exits shadow 20:34:38 10° 175° (S) 2,447 6.2 -15.4°
Maximum altitude 20:40:05 62° 95° (E) 952 4.2 -16.2°
Drops below altitude 10° 20:45:37 10° 17° (NNE) 2,490 6.9 -17.0°
Sets 20:48:05 0° 14° (NNE) 3,438 7.7 -17.4°
